Flag for India Weather past 2 weeks in Chennai, Tamil Nadu, India

Now
79 °F

Fog.


Feels Like: 83 °F
Forecast: 78 / 85 °F
Wind: No wind

Location: Madras / Minambakkam

Current Time: Oct 23, 2014 at 7:20:54 AM

Latest Report: Oct 23, 2014 at 6:40 AM


Visibility: 1 mi

Pressure: 29.89 "Hg

Humidity: 94%

Dew point: 77 °F

Location of ChennaiLocation

Historic Weather in Chennai — Graph

°F

Chennai temperature yesterday

Maximum temperature yesterday: 90 °F (at 11:10 AM)
Minimum temperature yesterday: 77 °F (at 2:10 AM)
Average temperature yesterday: 82 °F

Past Weeks' High & Low Weather Summary

 TemperatureHumidityPressure
High97 °F (Oct 13, 2:10 PM)100% (Oct 10, 4:10 AM)29.95 "Hg (Oct 10, 4:10 AM)
Low75 °F (Oct 18, 4:40 AM)39% (Oct 13, 2:10 PM)29.56 "Hg (Oct 11, 2:10 PM)
Average83 °F83%29.78 "Hg
* Reported Oct 8 6:40 AM — Oct 23 6:10 AM, Chennai, Weather by CustomWeather, © 2014

Note: Actual official high and low records may vary slightly from our data, if they occured in-between our weather recording intervals... More about our weather records

Advertising

Chennai weather history for previous 24 hours

 ConditionsComfort  
Time TempWeatherWind HumidityBarometerVisibility
6:10 AM
Oct 23
77 °FFog.No wind100%29.86 "Hg1 mi
5:40 AM77 °FFog.No wind100%29.86 "Hg1 mi
5:10 AM77 °FFog.No wind100%29.83 "Hg1 mi
4:40 AM77 °FFog.No wind100%29.83 "Hg1 mi
4:10 AM79 °FFog.No wind94%29.83 "Hg1 mi
3:40 AM79 °FFog.No wind94%29.83 "Hg1 mi
3:10 AM79 °FFog.No wind94%29.83 "Hg1 mi
2:40 AM79 °FFog.3 mph94%29.83 "Hg1 mi
2:10 AM79 °FFog.3 mph94%29.86 "Hg1 mi
1:40 AM79 °FFog.3 mph94%29.86 "Hg1 mi
1:10 AM79 °FFog.No wind100%29.89 "Hg1 mi
12:40 AM79 °FFog.No wind100%29.89 "Hg1 mi
12:10 AM79 °FFog.No wind100%29.89 "Hg1 mi
11:40 PM
Oct 22
79 °FFog.No wind100%29.89 "Hg1 mi
11:10 PM79 °FFog.No wind100%29.92 "Hg1 mi
10:40 PM79 °FFog.No wind100%29.92 "Hg1 mi
10:10 PM79 °FFog.No wind94%29.92 "Hg1 mi
9:40 PM79 °FFog.2 mph94%29.92 "Hg1 mi
9:10 PM79 °FFog.2 mph94%29.92 "Hg1 mi
8:40 PM79 °FFog.3 mph94%29.92 "Hg1 mi
7:40 PM81 °FFog.3 mph89%29.89 "Hg1 mi
7:10 PM81 °FPassing clouds.3 mph89%29.89 "Hg2 mi
6:40 PM81 °FPassing clouds.5 mph94%29.86 "Hg2 mi
5:40 PM84 °FScattered clouds.7 mph79%29.86 "Hg4 mi
5:10 PM84 °FScattered clouds.12 mph74%29.83 "Hg4 mi
4:40 PM86 °FScattered clouds.13 mph70%29.83 "Hg4 mi
4:10 PM86 °FScattered clouds.15 mph75%29.83 "Hg4 mi
3:40 PM84 °FScattered clouds.9 mph79%29.83 "Hg4 mi
3:10 PM84 °FScattered clouds.7 mph84%29.83 "Hg4 mi
2:40 PM88 °FScattered clouds.13 mph66%29.83 "Hg4 mi
2:10 PM90 °FScattered clouds.13 mph63%29.83 "Hg5 mi
1:40 PM88 °FScattered clouds.13 mph70%29.86 "Hg5 mi
1:10 PM88 °FScattered clouds.14 mph66%29.86 "Hg5 mi
12:40 PM90 °FScattered clouds.13 mph63%29.86 "Hg5 mi
12:10 PM90 °FScattered clouds.12 mph59%29.89 "Hg4 mi
11:40 AM90 °FScattered clouds.12 mph63%29.92 "Hg4 mi
11:10 AM90 °FScattered clouds.13 mph63%29.92 "Hg4 mi
10:10 AM84 °FFog.10 mph79%29.95 "Hg1 mi
9:40 AM84 °FFog.8 mph84%29.95 "Hg1 mi
9:10 AM82 °FFog.3 mph84%29.95 "Hg1 mi
8:40 AM82 °FFog.8 mph84%29.95 "Hg1 mi
8:10 AM81 °FFog.3 mph89%29.95 "Hg1 mi
7:40 AM79 °FFog.No wind94%29.95 "Hg1 mi
7:10 AM79 °FFog.No wind94%29.92 "Hg1 mi
Weather by CustomWeather, © 2014

See weather overviewHow to use our weather pages